カタログに戻る

SL-12 R/B

AUX MOTOR

運用中HEO
NORAD 21226·ROCKET BODY·🇷🇺 Russia

打ち上げ Apr 4, 1991 から Baikonur Cosmodrome

Loading…

次のパス (今後24時間)

TLE

最新Source: Space-Track

元期: Sep 13, 2026, 14:36 UTC

1 21226U 91025G   26256.60840678  .00018121  00000-0  13185-2 0  9993
2 21226  64.5303 339.4025 4405308  26.8348 350.4623  6.69884236669799

AllMySatでSL-12 R/Bをリアルタイム追跡

Download on the App Store